Location: �perlecques
(50.8057°N, 2.1521°E)
Time: 01:39:13
(UTC+00:00)

VELOX 1 - Pass Details

Date: 25 September 2021
Orbit: 627 x 642 km, 98.3° (Epoch: 21 October)

Event Time Altitude Azimuth Distance (km) Brightness Sun altitude
Exits shadow 04:20:42 21° 247° (WSW) 1,418 ? -13.6°
Maximum altitude 04:21:41 23° 267° (W) 1,355 ? -13.4°
Drops below altitude 10° 04:25:11 10° 320° (NW) 2,019 ? -12.9°
Sets 04:27:48 0° 335° (NNW) 2,930 ? -12.5°
